Regional Weather Roundup
Issued by NWS

Home | Current Version | Previous Version | Graphics & Text | Print | Product List | Glossary On
Versions: 1 2 3 4 5 6 7 8 9 10 11 12 13 14 15 16 17 18 19 20 21 22 23 24 25 26 27 28 29 30 31 32 33 34 35 36 37 38 39 40 41 42 43 44 45 46 47 48 49 50
000
ASUS45 KBOU 241007
RWRCO

WEATHER ROUNDUP FOR COLORADO
NATIONAL WEATHER SERVICE DENVER/BOULDER CO
300 AM MST MON NOV 24 2014

NOTE: "FAIR" INDICATES FEW OR NO CLOUDS BELOW 12000 FEET WITH NO
SIGNIFICANT WEATHER AND/OR OBSTRUCTIONS TO VISIBILITY.

COZ001>005-013-030-031-241100-
...NORTHWEST COLORADO...

CITY           SKY/WX    TMP DP  RH WIND       PRES   REMARKS
CRAIG          CLOUDY    22  15  75 N5        30.05R WCI  16
HAYDEN         CLOUDY    19  16  86 E3        30.02F VSB 1
MEEKER         CLOUDY    17  11  77 CALM      30.07F
MOUNT WERNER   NOT AVBL
STEAMBOAT SPGS CLOUDY    19  17  90 E3        30.02S VSB 3/4
WALDEN         CLOUDY    18   9  68 SW5       29.90F WCI  11
$$

COZ006>008-011-241100-
...WEST CENTRAL VALLEYS...

CITY           SKY/WX    TMP DP  RH WIND       PRES   REMARKS
GRAND JUNCTION CLOUDY    24  15  68 SE3       30.14R
MONTROSE       PTCLDY    18  12  77 SE7       30.17R WCI   9
EAGLE          CLOUDY    18  16  93 E6        30.07F WCI   9
RIFLE          CLOUDY    20  14  77 NE5       30.12F WCI  13
DELTA          CLOUDY    25  17  69 CALM      30.15F
NUCLA          PTCLDY    21  12  68 E9        30.19R WCI  11
$$

COZ017>023-064>068-241100-
...SOUTHWEST COLORADO...

CITY           SKY/WX    TMP DP  RH WIND       PRES   REMARKS
DURANGO        CLEAR     20  10  65 SW9       30.05S WCI   9
CORTEZ         CLEAR     15  11  83 E5        30.17R WCI   8
PAGOSA SPRINGS CLEAR     11   4  74 NE3       30.02S
TELLURIDE      NOT AVBL
WOLF CREEK PAS PTCLDY     9 -15  33 MISG      29.92R
$$

COZ009-010-012-014-032>034-037-058>063-241100-
...CENTRAL COLORADO...

CITY           SKY/WX    TMP DP  RH WIND       PRES   REMARKS
ASPEN          CLOUDY    16  13  88 CALM      30.03F
BUENA VISTA    PTCLDY    19  -1  41 W23G32    29.95F WCI   2
COPPER MTN     CLOUDY     5   0  78 W31G47    29.83F WCI -19
BERTHOUD PASS  HVY SNOW   0  -6  78 NW39      29.74F VSB 1/4 WCI -29
COTTONWOOD PAS PTCLDY    18  -4  38 W40G56    29.86R WCI  -4
GUNNISON       PTCLDY    10   5  79 N7        30.09S WCI   0
KREMMLING      CLOUDY    21  10  63 SW14G20   29.98F WCI   8
LEADVILLE      LGT SNOW   8   3  80 N3        29.92F
MONARCH PASS   CLOUDY     1  -4  78 MISG      29.96R
SALIDA         PTCLDY    23   1  37 W21G31    30.04F WCI   8
SUNLIGHT       CLOUDY   N/A N/A N/A CALM      29.97F
WILKERSON PASS PTCLDY     5  -8  56 NW14      29.81R WCI -12
$$

COZ069>075-241100-
...SAN LUIS VALLEY/SANGRE DE CRISTO MOUNTAINS...

CITY           SKY/WX    TMP DP  RH WIND       PRES   REMARKS
ALAMOSA        CLEAR     11   3  70 S5        30.01R WCI   3
LA VETA PASS   CLEAR      7   1  78 S9        29.86S WCI  -7
SAGUACHE       NOT AVBL
$$

COZ035-036-038>040-241100-
...NORTHERN COLORADO FRONT RANGE...

CITY           SKY/WX    TMP DP  RH WIND       PRES   REMARKS
DENVER INTL AP MOCLDY    28   8  43 SW12      29.85F WCI  18
DMNS CITY PARK   N/A     31   3  30 NW6G15    29.87S WCI  25
AURORA         PTCLDY    29   5  37 W13       29.87F WCI  18
FRONT RANGE AP MOCLDY    30  12  47 W16       29.87S WCI  19
ERIE MUNI ARPT PTCLDY    33   6  31 W10G24    29.85F WCI  25
BOULDER MUN AP PTCLDY    34   3  27 NE9       29.83F WCI  26
CENTENNIAL     PTCLDY    29   5  36 W13       29.87F WCI  19
BROOMFIELD     PTCLDY    32   5  32 W28G35    29.85F WCI  18
FORT COLLINS   PTCLDY    27   7  43 E10       29.85F WCI  17
LONGMONT       PTCLDY    34   6  30 W6        29.86F WCI  29
$$

COZ041-046-047-076>085-087-088-241100-
...PIKES PEAK/PALMER DIVIDE AND SOUTHERN FOOTHILLS...

CITY           SKY/WX    TMP DP  RH WIND       PRES   REMARKS
COLO. SPRINGS  PTCLDY    28   3  34 NW22G32   29.88F WCI  14
A. F. ACADEMY  PTCLDY    25   3  38 W25G36    29.86S WCI   9
ELLICOTT       NOT AVBL
FALCON         NOT AVBL
FORT CARSON    PTCLDY    21   5  51 N2        29.87S
LIMON          CLEAR     17   7  64 W14       29.86S WCI   3
MONUMENT HILL  PTCLDY    12   3  67 W12       29.85F WCI  -2
TRINIDAD       CLEAR     17  10  74 W15       29.93S WCI   2
$$

COZ042>045-048>051-090-091-241100-
...NORTHEAST COLORADO...

CITY           SKY/WX    TMP DP  RH WIND       PRES   REMARKS
GREELEY ARPT   MOCLDY    19   9  63 NE5       29.87S WCI  13
AKRON          CLEAR     22  12  65 W17G25    29.82S WCI   8
BURLINGTON     CLEAR     28  13  53 NW20      29.85R WCI  15
WRAY           CLEAR     29  14  54 W17G24    29.81F WCI  17
STERLING       CLEAR     32  18  55 NW15G21   29.83S WCI  22
HOLYOKE        CLEAR     32  18  55 W18G26    29.79R WCI  20
FORT MORGAN    CLEAR     17  10  75 W6        29.85F WCI   8
$$

COZ086-089-092>099-241100-
...SOUTHEAST COLORADO...

CITY           SKY/WX    TMP DP  RH WIND       PRES   REMARKS
PUEBLO         CLEAR     26  14  60 S3        29.93R
LA JUNTA       CLEAR     25  20  81 W13       29.92R WCI  14
LAMAR          CLEAR     25  22  88 W10       29.91R WCI  15
SPRINGFIELD      N/A     24  21  88 W12       29.91F WCI  13
$$



USA.gov is the U.S. government's official web portal to all federal, state and local government web resources and services.